#timestamp,LO_Frequency,Hit,StdDev 
1514984415.1,286047000.6,N
1514984435.9,286047000.8,N
1514984455.7,286047000.5,N
1514984475.5,286047004.3,Y
1514984495.4,286047002.1,P
1514984515.2,286047005.3,P
1514984535.0,286047005.2,P
1514984535.9,286047005.2,N
1514984555.8,286047005.3,Y
1514984575.6,286047002.7,P
1514984595.5,286047005.2,P
1514984615.3,286047011.9,P
1514984635.1,286047011.3,Y
1514984655.9,286047006.4,P
1514984675.7,286047004.7,P
1514984695.6,286047005.3,P
1514984715.4,286047001.6,N
1514984735.2,286047002.6,N
1514984755.1,286047002.3,N
1514984756.0,286047002.3,N
1514984775.8,286047000.5,N
1514984795.6,286047001.0,N
1514984815.5,286047000.7,N
1514984835.3,286047000.6,N
1514984855.2,286046998.6,N
1514984875.9,286046998.4,N
1514984895.7,286046996.8,N
1514984915.6,286046997.4,N
1514984935.4,286046998.0,N
1514984955.2,286046995.1,N
1514984975.1,286046995.4,N
1514984976.0,286046995.4,N
1514984995.8,286046995.6,N
1514985015.7,286046997.9,N
1514985035.5,286046997.2,N
1514985055.3,286046995.0,N
1514985075.2,286046996.4,N
1514985095.0,286046995.2,N
1514985095.9,286046995.2,N
1514985115.7,286046995.2,N
1514985135.6,286046996.4,N
1514985155.4,286046995.1,N
1514985175.3,286046995.1,N
1514985195.1,286046996.1,N
1514985215.8,286046996.3,N
1514985235.7,286046994.5,N
1514985255.5,286046995.4,N
1514985275.4,286046993.9,N
1514985295.2,286046993.6,N
1514985315.0,286046993.5,N
1514985315.9,286046993.5,Y
1514985335.8,286046996.5,P
1514985355.6,286046998.3,P
1514985375.4,286046998.1,N
1514985395.3,286046999.0,N
1514985415.1,286046999.2,N
1514985435.9,286046996.5,Y
1514985455.7,286047001.3,P
1514985475.5,286047001.1,N
1514985495.4,286046996.5,N
1514985515.2,286046997.4,N
1514985535.0,286047002.8,N
1514985536.0,286047002.8,N
1514985555.8,286047004.1,N
1514985575.6,286047004.0,N
1514985595.5,286047004.3,N
1514985615.3,286047003.4,N
1514985635.1,286047002.9,N
1514985655.9,286047003.5,N
1514985675.7,286047002.9,N
1514985695.5,286047004.1,N
1514985715.4,286047002.5,N
1514985735.2,286046999.7,N
1514985755.1,286047000.4,N
1514985756.0,286047000.4,N
1514985775.8,286046999.4,N
1514985795.6,286046998.0,N
1514985815.5,286046995.2,N
1514985835.3,286046995.1,N
1514985855.2,286046995.7,N
1514985875.9,286046997.5,N
1514985895.7,286046995.6,N
1514985915.6,286046995.1,N
1514985935.4,286046997.7,N
1514985955.3,286046999.4,N
1514985975.1,286047001.2,N
1514985976.0,286047001.2,N
1514985995.8,286046998.5,N
1514986015.7,286047002.7,N
1514986035.5,286046999.8,N
1514986055.3,286047000.0,N
1514986075.2,286046998.8,N
1514986095.0,286046998.4,N
1514986095.9,286046998.4,N
1514986115.8,286047000.3,N
1514986135.6,286047000.6,N
1514986155.4,286047000.5,N
1514986175.3,286047003.0,N
1514986195.1,286047007.0,N
1514986215.9,286047004.6,N
1514986235.7,286047003.5,N
1514986255.5,286047007.2,N
1514986275.4,286047009.0,N
1514986295.2,286047005.0,N
1514986315.0,286047002.9,N
1514986315.9,286047002.9,N
1514986335.8,286047003.8,N
1514986355.6,286047001.3,N
1514986375.5,286047005.7,N
1514986395.3,286047003.4,N
1514986415.1,286047002.9,N
1514986435.9,286047004.0,N
1514986455.7,286047003.2,N
1514986475.5,286047003.0,N
1514986495.4,286047008.4,Y
1514986515.2,286047006.6,P
1514986535.1,286047008.7,P
1514986536.0,286047008.7,P
1514986555.8,286047009.7,Y
1514986575.6,286047003.2,P
1514986595.5,286047005.1,N
1514986615.3,286047007.0,P
1514986635.2,286047006.1,Y
1514986655.9,286047003.9,P
1514986675.7,286047000.0,N
1514986695.6,286046998.6,N
1514986715.4,286046997.2,N
1514986735.2,286046996.6,N
1514986755.1,286046997.4,N
1514986756.0,286046997.4,N
1514986775.8,286047004.3,N
1514986795.7,286047003.9,N
1514986815.5,286047001.9,N
1514986835.3,286046998.4,N
1514986855.2,286046995.3,N
1514986875.0,286046998.0,N
1514986875.9,286046998.0,N
1514986895.8,286046994.5,N
1514986915.6,286046992.6,N
1514986935.4,286046993.0,N
1514986955.3,286046992.0,N
1514986975.1,286046993.9,N
1514986976.0,286046993.9,N
1514986995.8,286046994.3,N
1514987015.7,286046992.2,N
1514987035.5,286046990.9,N
1514987055.3,286046990.3,N
1514987075.2,286046990.6,N
1514987095.0,286046991.0,N
1514987095.9,286046991.0,N
1514987115.8,286046990.2,N
1514987135.6,286046994.8,N
1514987155.4,286046994.8,N
1514987175.3,286046992.7,N
1514987195.1,286046992.6,N
1514987215.8,286046990.5,N
1514987235.7,286046987.6,Y
1514987255.5,286046992.9,P
1514987275.4,286046990.5,P
1514987295.2,286046990.9,P
1514987315.0,286046993.1,Y
1514987315.9,286046993.1,P
1514987335.8,286047000.7,N
1514987355.6,286046998.3,N
1514987375.5,286046998.9,N
1514987395.3,286046994.9,N
1514987415.1,286046997.9,N
1514987435.9,286046999.6,N
1514987455.7,286047002.8,N
1514987475.5,286047001.8,N
1514987495.4,286047003.8,N
1514987515.2,286047004.8,N
1514987535.1,286047003.5,N
1514987536.0,286047003.5,N
1514987555.8,286047004.2,N
1514987575.6,286047004.0,N
1514987595.5,286047002.2,N
1514987615.3,286047004.0,N
1514987635.1,286047002.7,N
1514987655.9,286047002.2,N
1514987675.7,286047000.5,N
1514987695.6,286046998.2,N
1514987715.4,286046996.5,N
1514987735.2,286046999.4,N
1514987755.1,286046999.6,N
1514987756.0,286046999.6,N
1514987775.8,286046998.8,N
1514987795.7,286047001.1,N
1514987815.5,286047000.6,N
1514987835.3,286047002.8,N
1514987855.2,286047000.2,N
1514987875.0,286047000.3,N
1514987875.9,286047000.3,N
1514987895.7,286046999.8,N
1514987915.6,286047000.5,N
1514987935.4,286047001.4,N
1514987955.3,286047001.4,N
1514987975.1,286047002.5,N
1514987976.0,286047002.5,N
1514987995.8,286047004.2,N
